| time (UTC) | temp F | wind direction | speed MPH | gust MPH | rain 1hr in | rain 24hr in | rain mn in | humidity % | barometer mb |
| 20260505125009 | 60 | 199 | 2.0 | 3.0 | 0.00 | 0.00 | 0.00 | 77 | 1006.9 |
| 20260505124522 | 60 | 178 | 2.0 | 3.0 | 0.00 | 0.00 | 0.00 | 76 | 1006.7 |
| 20260505124013 | 60 | 181 | 0.0 | 3.0 | 0.00 | 0.00 | 0.00 | 77 | 1006.7 |
| 20260505123513 | 60 | 185 | 2.0 | 3.0 | 0.00 | 0.00 | 0.00 | 76 | 1006.7 |
| 20260505123008 | 60 | 201 | 1.0 | 4.0 | 0.00 | 0.00 | 0.00 | 76 | 1006.8 |
| 20260505122503 | 59 | 206 | 2.0 | 5.0 | 0.00 | 0.00 | 0.00 | 77 | 1006.4 |
| 20260505122006 | 59 | 198 | 2.0 | 8.0 | 0.00 | 0.00 | 0.00 | 77 | 1006.1 |
| 20260505121513 | 59 | 190 | 2.0 | 13.0 | 0.00 | 0.00 | 0.00 | 78 | 1005.9 |
| 20260505121006 | 59 | 168 | 3.0 | 13.0 | 0.00 | 0.00 | 0.00 | 77 | 1005.6 |
| 20260505120507 | 59 | 149 | 5.0 | 10.0 | 0.00 | 0.00 | 0.00 | 78 | 1005.4 |
| 20260505120018 | 59 | 165 | 3.0 | 5.0 | 0.00 | 0.00 | 0.00 | 78 | 1005.9 |
| 20260505115511 | 59 | 176 | 2.0 | 5.0 | 0.00 | 0.00 | 0.00 | 78 | 1005.6 |
| 20260505115006 | 59 | 180 | 2.0 | 4.0 | 0.00 | 0.00 | 0.00 | 79 | 1005.8 |
| 20260505114520 | 59 | 189 | 2.0 | 4.0 | 0.00 | 0.00 | 0.00 | 79 | 1005.9 |
| 20260505114009 | 59 | 180 | 2.0 | 4.0 | 0.00 | 0.00 | 0.00 | 78 | 1006.0 |
| 20260505113514 | 59 | 190 | 2.0 | 3.0 | 0.00 | 0.00 | 0.00 | 77 | 1006.0 |
| 20260505113030 | 59 | 199 | 1.0 | 5.0 | 0.00 | 0.00 | 0.00 | 77 | 1006.0 |
| 20260505112510 | 60 | 176 | 1.0 | 5.0 | 0.00 | 0.00 | 0.00 | 74 | 1006.0 |
| 20260505112012 | 61 | 158 | 2.0 | 5.0 | 0.00 | 0.00 | 0.00 | 72 | 1006.2 |
| 20260505111510 | 61 | 191 | 1.0 | 6.0 | 0.00 | 0.00 | 0.00 | 69 | 1006.0 |
| 20260505111003 | 61 | 257 | 3.0 | 8.0 | 0.00 | 0.00 | 0.00 | 69 | 1006.0 |
| 20260505110504 | 62 | 177 | 2.0 | 8.0 | 0.00 | 0.00 | 0.00 | 69 | 1006.0 |
| 20260505102002 | 62 | 190 | 2.0 | 5.0 | 0.00 | 0.00 | 0.00 | 69 | 1005.7 |
| 20260505101513 | 62 | 175 | 2.0 | 5.0 | 0.00 | 0.00 | 0.00 | 68 | 1005.7 |
| 20260505101004 | 62 | 192 | 2.0 | 3.0 | 0.00 | 0.00 | 0.00 | 68 | 1005.6 |
| 20260505100506 | 62 | 172 | 1.0 | 4.0 | 0.00 | 0.00 | 0.00 | 67 | 1005.5 |
| 20260505100014 | 63 | 192 | 1.0 | 4.0 | 0.00 | 0.00 | 0.00 | 67 | 1005.5 |
| 20260505095505 | 63 | 202 | 2.0 | 4.0 | 0.00 | 0.00 | 0.00 | 66 | 1005.4 |
| 20260505095009 | 63 | 190 | 2.0 | 4.0 | 0.00 | 0.00 | 0.00 | 66 | 1005.4 |
| 20260505094525 | 63 | 191 | 2.0 | 6.0 | 0.00 | 0.00 | 0.00 | 65 | 1005.4 |
| 20260505094007 | 64 | 178 | 2.0 | 5.0 | 0.00 | 0.00 | 0.00 | 65 | 1005.3 |
| 20260505093511 | 64 | 191 | 2.0 | 5.0 | 0.00 | 0.00 | 0.00 | 65 | 1005.1 |
| 20260505093024 | 64 | 191 | 2.0 | 5.0 | 0.00 | 0.00 | 0.00 | 64 | 1005.1 |
| 20260505092506 | 64 | 173 | 2.0 | 6.0 | 0.00 | 0.00 | 0.00 | 64 | 1005.0 |
| 20260505091522 | 64 | 200 | 4.0 | 8.0 | 0.00 | 0.00 | 0.00 | 63 | 1004.7 |
| 20260505091004 | 64 | 161 | 2.0 | 6.0 | 0.00 | 0.00 | 0.00 | 63 | 1004.8 |
| 20260505090503 | 64 | 184 | 2.0 | 6.0 | 0.00 | 0.00 | 0.00 | 63 | 1004.8 |
| 20260505085504 | 65 | 193 | 2.0 | 6.0 | 0.00 | 0.00 | 0.00 | 62 | 1004.6 |
| 20260505085009 | 65 | 190 | 2.0 | 9.0 | 0.00 | 0.00 | 0.00 | 62 | 1004.6 |
| 20260505084514 | 65 | 207 | 2.0 | 9.0 | 0.00 | 0.00 | 0.00 | 62 | 1004.6 |
| 20260505084010 | 64 | 192 | 3.0 | 6.0 | 0.00 | 0.00 | 0.00 | 63 | 1004.5 |
| 20260505083507 | 64 | 217 | 2.0 | 6.0 | 0.00 | 0.00 | 0.00 | 64 | 1004.4 |
| 20260505083019 | 64 | 200 | 2.0 | 7.0 | 0.00 | 0.00 | 0.00 | 65 | 1004.4 |
| 20260505082507 | 64 | 182 | 2.0 | 7.0 | 0.00 | 0.00 | 0.00 | 65 | 1004.4 |
| 20260505082009 | 64 | 188 | 3.0 | 5.0 | 0.00 | 0.00 | 0.00 | 65 | 1004.5 |
| 20260505081523 | 64 | 186 | 2.0 | 5.0 | 0.00 | 0.00 | 0.00 | 66 | 1004.6 |
| 20260505081008 | 64 | 212 | 3.0 | 5.0 | 0.00 | 0.00 | 0.00 | 66 | 1004.5 |
| 20260505080510 | 64 | 197 | 3.0 | 5.0 | 0.00 | 0.00 | 0.00 | 66 | 1004.5 |
| 20260505080026 | 64 | 202 | 2.0 | 4.0 | 0.00 | 0.00 | 0.00 | 1004.5 | |
| 20260505075506 | 64 | 201 | 2.0 | 5.0 | 0.00 | 0.00 | 0.00 | 1004.3 | |
| 20260505073505 | 64 | 192 | 3.0 | 6.0 | 0.00 | 0.00 | 0.00 | 65 | 1004.1 |
| 20260505072506 | 64 | 188 | 4.0 | 8.0 | 0.00 | 0.00 | 0.00 | 65 | 1004.0 |
| 20260505071521 | 64 | 183 | 4.0 | 6.0 | 0.00 | 0.00 | 0.00 | 66 | 1003.9 |
| 20260505071010 | 64 | 193 | 4.0 | 8.0 | 0.00 | 0.00 | 0.00 | 66 | 1003.9 |
| 20260505070509 | 64 | 174 | 3.0 | 8.0 | 0.00 | 0.00 | 0.00 | 66 | 1003.9 |
| 20260505070036 | 64 | 202 | 4.0 | 6.0 | 0.00 | 0.00 | 0.00 | 66 | 1003.8 |
| 20260505065508 | 64 | 191 | 4.0 | 6.0 | 0.00 | 0.00 | 0.00 | 66 | 1003.9 |
| 20260505065009 | 64 | 185 | 4.0 | 6.0 | 0.00 | 0.00 | 0.00 | 66 | 1003.9 |
| 20260505064508 | 64 | 205 | 3.0 | 6.0 | 0.00 | 0.00 | 0.00 | 66 | 1004.0 |
| 20260505064006 | 64 | 178 | 3.0 | 6.0 | 0.00 | 0.00 | 0.00 | 66 | 1004.1 |
| 20260505063015 | 64 | 185 | 3.0 | 6.0 | 0.00 | 0.00 | 0.00 | 1004.0 | |
| 20260505062508 | 64 | 180 | 3.0 | 7.0 | 0.00 | 0.00 | 0.00 | 66 | 1004.2 |
| 20260505062009 | 64 | 193 | 4.0 | 7.0 | 0.00 | 0.00 | 0.00 | 66 | 1004.2 |
| 20260505061523 | 64 | 178 | 4.0 | 6.0 | 0.00 | 0.00 | 0.00 | 66 | 1004.2 |
| 20260505061010 | 64 | 177 | 3.0 | 7.0 | 0.00 | 0.00 | 0.00 | 66 | 1004.2 |
| 20260505060022 | 64 | 181 | 3.0 | 6.0 | 0.00 | 0.00 | 0.00 | 66 | 1004.2 |
| 20260505055511 | 64 | 188 | 3.0 | 6.0 | 0.00 | 0.00 | 0.00 | 66 | 1004.2 |
| 20260505055015 | 64 | 188 | 3.0 | 8.0 | 0.00 | 0.00 | 0.00 | 66 | 1004.4 |
| 20260505054533 | 64 | 173 | 3.0 | 8.0 | 0.00 | 0.00 | 0.00 | 67 | 1004.3 |
| 20260505054014 | 64 | 201 | 3.0 | 7.0 | 0.00 | 0.00 | 0.00 | 67 | 1004.5 |
| 20260505053516 | 64 | 188 | 4.0 | 7.0 | 0.00 | 0.00 | 0.00 | 67 | 1004.7 |
| 20260505052008 | 64 | 180 | 3.0 | 6.0 | 0.00 | 0.00 | 0.00 | 68 | 1004.8 |
| 20260505051009 | 63 | 194 | 3.0 | 5.0 | 0.00 | 0.00 | 0.00 | 69 | 1004.8 |
| 20260505041528 | 63 | 195 | 2.0 | 5.0 | 0.00 | 0.00 | 0.00 | 69 | 1005.1 |
| 20260505041009 | 63 | 174 | 2.0 | 5.0 | 0.00 | 0.00 | 0.00 | 69 | 1005.1 |
| 20260505035006 | 63 | 173 | 2.0 | 7.0 | 0.00 | 0.00 | 0.00 | 69 | 1005.1 |
| 20260505033508 | 63 | 186 | 3.0 | 9.0 | 0.00 | 0.00 | 0.00 | 69 | 1005.2 |
| 20260505033026 | 63 | 181 | 4.0 | 9.0 | 0.00 | 0.00 | 0.00 | 68 | 1005.2 |
| 20260505032508 | 63 | 193 | 3.0 | 8.0 | 0.00 | 0.00 | 0.00 | 70 | 1005.2 |
| 20260505032014 | 63 | 182 | 3.0 | 11.0 | 0.00 | 0.00 | 0.00 | 70 | 1005.1 |
| 20260505031537 | 63 | 174 | 5.0 | 11.0 | 0.00 | 0.00 | 0.00 | 70 | 1005.2 |
| 20260505031010 | 63 | 182 | 2.0 | 7.0 | 0.00 | 0.00 | 0.00 | 68 | 1005.3 |
| 20260505030510 | 63 | 167 | 2.0 | 6.0 | 0.00 | 0.00 | 0.00 | 68 | 1005.3 |
| 20260505030017 | 63 | 175 | 3.0 | 5.0 | 0.00 | 0.00 | 0.00 | 68 | 1005.3 |
| 20260505025510 | 63 | 175 | 3.0 | 10.0 | 0.00 | 0.00 | 0.00 | 67 | 1005.3 |
| 20260505025011 | 63 | 175 | 5.0 | 10.0 | 0.00 | 0.00 | 0.00 | 67 | 1005.2 |
| 20260505024006 | 63 | 165 | 3.0 | 6.0 | 0.00 | 0.00 | 0.00 | 68 | 1005.2 |
| 20260505022508 | 63 | 180 | 2.0 | 6.0 | 0.00 | 0.00 | 0.00 | 67 | 1005.2 |
| 20260505022014 | 63 | 181 | 2.0 | 6.0 | 0.00 | 0.00 | 0.00 | 67 | 1005.1 |
| 20260505021526 | 63 | 176 | 2.0 | 7.0 | 0.00 | 0.00 | 0.00 | 67 | 1005.1 |
| 20260505021012 | 63 | 189 | 3.0 | 8.0 | 0.00 | 0.00 | 0.00 | 67 | 1005.2 |
| 20260505020507 | 63 | 175 | 2.0 | 8.0 | 0.00 | 0.00 | 0.00 | 67 | 1005.2 |
| 20260505015508 | 63 | 158 | 2.0 | 6.0 | 0.00 | 0.00 | 0.00 | 67 | 1005.2 |
| 20260505013514 | 64 | 177 | 2.0 | 4.0 | 0.00 | 0.00 | 0.00 | 66 | 1005.3 |
| 20260505012504 | 64 | 187 | 2.0 | 5.0 | 0.00 | 0.00 | 0.00 | 65 | 1005.3 |
| 20260505010506 | 64 | 194 | 3.0 | 5.0 | 0.00 | 0.00 | 0.00 | 63 | 1005.2 |
| 20260505005507 | 65 | 183 | 3.0 | 6.0 | 0.00 | 0.00 | 0.00 | 61 | 1005.2 |
| 20260505004517 | 66 | 191 | 3.0 | 7.0 | 0.00 | 0.00 | 0.00 | 60 | 1005.1 |
| 20260505003511 | 67 | 171 | 4.0 | 8.0 | 0.00 | 0.00 | 0.00 | 58 | 1005.0 |
| 20260505002509 | 67 | 200 | 5.0 | 9.0 | 0.00 | 0.00 | 0.00 | 58 | 1005.0 |
| 20260505002009 | 67 | 200 | 2.0 | 6.0 | 0.00 | 0.00 | 0.00 | 58 | 1004.8 |
| 20260505001524 | 67 | 192 | 3.0 | 6.0 | 0.00 | 0.00 | 0.00 | 58 | 1004.7 |
| 20260505000503 | 67 | 157 | 3.0 | 5.0 | 0.00 | 0.00 | 0.00 | 58 | 1004.4 |
| 20260505000010 | 67 | 187 | 3.0 | 5.0 | 0.00 | 0.00 | 0.00 | 58 | 1004.3 |
| 20260504235510 | 68 | 173 | 2.0 | 5.0 | 0.00 | 0.00 | 0.00 | 58 | 1004.3 |
| 20260504235011 | 68 | 184 | 2.0 | 5.0 | 0.00 | 0.00 | 0.00 | 57 | 1004.2 |
| 20260504234515 | 68 | 200 | 3.0 | 6.0 | 0.00 | 0.00 | 0.00 | 56 | 1004.1 |
| 20260504234008 | 68 | 200 | 3.0 | 6.0 | 0.00 | 0.00 | 0.00 | 56 | 1004.2 |
| 20260504233023 | 69 | 192 | 3.0 | 6.0 | 0.00 | 0.00 | 0.00 | 54 | 1004.0 |
| 20260504231523 | 69 | 199 | 3.0 | 6.0 | 0.00 | 0.00 | 0.00 | 56 | 1004.0 |
| 20260504231012 | 69 | 163 | 3.0 | 6.0 | 0.00 | 0.00 | 0.00 | 56 | 1004.2 |
| 20260504230508 | 69 | 186 | 3.0 | 11.0 | 0.00 | 0.00 | 0.00 | 56 | 1004.3 |
| 20260504230024 | 69 | 191 | 4.0 | 11.0 | 0.00 | 0.00 | 0.00 | 55 | 1004.3 |
| 20260504225008 | 70 | 192 | 3.0 | 7.0 | 0.00 | 0.00 | 0.00 | 55 | 1004.5 |
| 20260504224512 | 70 | 184 | 5.0 | 7.0 | 0.00 | 0.00 | 0.00 | 54 | 1004.5 |
| 20260504224004 | 70 | 205 | 3.0 | 7.0 | 0.00 | 0.00 | 0.00 | 54 | 1004.3 |
| 20260504223507 | 70 | 167 | 3.0 | 9.0 | 0.00 | 0.00 | 0.00 | 54 | 1004.4 |
| 20260504223026 | 70 | 182 | 3.0 | 11.0 | 0.00 | 0.00 | 0.00 | 55 | 1004.5 |
| 20260504222010 | 70 | 191 | 6.0 | 11.0 | 0.00 | 0.00 | 0.00 | 54 | 1004.5 |
| 20260504221526 | 70 | 194 | 3.0 | 8.0 | 0.00 | 0.00 | 0.00 | 57 | 1004.6 |
| 20260504220024 | 70 | 198 | 4.0 | 8.0 | 0.00 | 0.00 | 0.00 | 56 | 1004.6 |
| 20260504215510 | 69 | 207 | 5.0 | 8.0 | 0.00 | 0.00 | 0.00 | 56 | 1004.7 |
| 20260504215012 | 69 | 194 | 5.0 | 8.0 | 0.00 | 0.00 | 0.00 | 57 | 1004.6 |
| 20260504214508 | 69 | 171 | 3.0 | 7.0 | 0.00 | 0.00 | 0.00 | 57 | 1004.7 |
| 20260504213025 | 70 | 164 | 3.0 | 8.0 | 0.00 | 0.00 | 0.00 | 55 | 1004.7 |
| 20260504211007 | 70 | 192 | 4.0 | 8.0 | 0.00 | 0.00 | 0.00 | 55 | 1004.6 |
| 20260504205011 | 70 | 194 | 5.0 | 9.0 | 0.00 | 0.00 | 0.00 | 57 | 1004.9 |
| 20260504204537 | 70 | 166 | 5.0 | 9.0 | 0.00 | 0.00 | 0.00 | 57 | 1005.0 |
| 20260504204016 | 70 | 147 | 3.0 | 7.0 | 0.00 | 0.00 | 0.00 | 57 | 1005.0 |
| 20260504203511 | 70 | 170 | 4.0 | 6.0 | 0.00 | 0.00 | 0.00 | 54 | 1005.0 |
| 20260504201523 | 70 | 295 | 3.0 | 9.0 | 0.00 | 0.00 | 0.00 | 56 | 1005.1 |
| 20260504200503 | 70 | 199 | 4.0 | 9.0 | 0.00 | 0.00 | 0.00 | 56 | 1005.2 |
| 20260504200005 | 70 | 174 | 3.0 | 9.0 | 0.00 | 0.00 | 0.00 | 56 | 1005.2 |
| 20260504195504 | 70 | 197 | 5.0 | 8.0 | 0.00 | 0.00 | 0.00 | 55 | 1005.3 |
| 20260504195003 | 70 | 159 | 3.0 | 9.0 | 0.00 | 0.00 | 0.00 | 55 | 1005.4 |
| 20260504194503 | 70 | 188 | 5.0 | 8.0 | 0.00 | 0.00 | 0.00 | 57 | 1005.3 |
| 20260504194007 | 70 | 193 | 4.0 | 8.0 | 0.00 | 0.00 | 0.00 | 55 | 1005.6 |
| 20260504193506 | 70 | 167 | 3.0 | 8.0 | 0.00 | 0.00 | 0.00 | 56 | 1005.6 |
| 20260504193008 | 70 | 173 | 3.0 | 9.0 | 0.00 | 0.00 | 0.00 | 57 | 1005.7 |
| 20260504191516 | 69 | 166 | 4.0 | 9.0 | 0.00 | 0.00 | 0.00 | 57 | 1005.9 |
| 20260504191007 | 69 | 181 | 4.0 | 10.0 | 0.00 | 0.00 | 0.00 | 58 | 1005.9 |
| 20260504190004 | 69 | 203 | 4.0 | 9.0 | 0.00 | 0.00 | 0.00 | 57 | 1006.2 |
| 20260504185504 | 69 | 206 | 5.0 | 9.0 | 0.00 | 0.00 | 0.00 | 57 | 1006.4 |
| 20260504185005 | 69 | 181 | 5.0 | 8.0 | 0.00 | 0.00 | 0.00 | 57 | 1006.3 |
| 20260504184504 | 69 | 179 | 5.0 | 8.0 | 0.00 | 0.00 | 0.00 | 57 | 1006.4 |
| 20260504184004 | 69 | 182 | 4.0 | 8.0 | 0.00 | 0.00 | 0.00 | 57 | 1006.4 |
| 20260504183507 | 69 | 173 | 3.0 | 8.0 | 0.00 | 0.00 | 0.00 | 60 | 1006.4 |
| 20260504183010 | 69 | 195 | 4.0 | 9.0 | 0.00 | 0.00 | 0.00 | 55 | 1006.5 |
| 20260504181515 | 68 | 167 | 4.0 | 9.0 | 0.00 | 0.00 | 0.00 | 56 | 1006.5 |
| 20260504175008 | 68 | 163 | 4.0 | 13.0 | 0.00 | 0.00 | 0.00 | 57 | 1006.5 |
| 20260504174514 | 68 | 174 | 6.0 | 13.0 | 0.00 | 0.00 | 0.00 | 56 | 1006.7 |
| 20260504174004 | 68 | 177 | 5.0 | 12.0 | 0.00 | 0.00 | 0.00 | 57 | 1006.8 |
| 20260504173504 | 68 | 166 | 5.0 | 9.0 | 0.00 | 0.00 | 0.00 | 55 | 1006.8 |
| 20260504173008 | 68 | 167 | 5.0 | 9.0 | 0.00 | 0.00 | 0.00 | 56 | 1006.9 |
| 20260504172504 | 68 | 173 | 4.0 | 9.0 | 0.00 | 0.00 | 0.00 | 58 | 1007.0 |
| 20260504172003 | 67 | 169 | 3.0 | 7.0 | 0.00 | 0.00 | 0.00 | 57 | 1007.0 |
| 20260504151004 | 63 | 159 | 3.0 | 6.0 | 0.00 | 0.00 | 0.00 | 59 | 1008.0 |
| 20260504150504 | 63 | 194 | 3.0 | 7.0 | 0.00 | 0.00 | 0.00 | 58 | 1007.9 |
| 20260504141010 | 59 | 178 | 4.0 | 8.0 | 0.00 | 0.00 | 0.00 | 61 | 1008.3 |
| 20260504140511 | 59 | 184 | 3.0 | 8.0 | 0.00 | 0.00 | 0.00 | 63 | 1008.4 |